STARLINK-2758 (48638 NORAD) Tracking and Keplerian Element Data

This shows tracking and keplerian element data for the satellite.

Feedback or suggestion? Click here.




ElementValue
Catalog48638
NameSTARLINK-2758
Epoch Orbit2250
Epoch Day287.93580226
Epoch Year2021
RAAN129.602
Inclination53.0552
Eccentricity0.0001803
Argument of Perigee66.0635
Mean Anonmoly294.0542
Mean Motion15.06391952
Decay Rate-1.523E-05
L11 48638U 21044A 21287.93580226 -.00001523 00000-0 -83400-4 0 9997
L22 48638 53.0552 129.6020 0001803 66.0635 294.0542 15.06391952 22505

Live tracking and technical data element details for STARLINK-2758 (NORAD 48638). STARLINK-2758 can be tracked NOW for your location showing map with azimuth and elevation plus other details from your city location.

Track the satellite on the map from your city or location and see movement details for azimuth, elevation, latitude, longitude, range, height, and movement on the map or in text.







IsCatalogInMostPopularTable: catalog: 48638, numindb: 38
Update: records affected: 1



GetName: 48638 STARLINK-2758

Hit Count: updated at: Tue, 19 Oct 2021 08:15:18 GMT